Location: Borotín
(49.5055°N, 14.6142°E)
Time: 07:48:10
(UTC+00:00)

Cosmos 1980 - Pass Details

Date: 27 May 2022
Orbit: 840 x 846 km, 71.0° (Epoch: 28 June)

Event Time Altitude Azimuth Distance (km) Brightness Sun altitude
Exits shadow 00:05:52 30° 208° (SSW) 1,477 4.4 -17.7°
Maximum altitude 00:08:50 89° 295° (WNW) 848 3.6 -17.5°
Drops below altitude 10° 00:14:31 10° 29° (NNE) 2,467 7.4 -17.3°
Sets 00:16:58 0° 29° (NNE) 3,406 8.5 -17.1°
